Location: Borbetomagus
(49.6328°N, 8.3592°E)
Time: 10:42:15
(UTC+00:00)

SPOT 3 Rocket - Pass Details

Date: 19 May 2025
Orbit: 775 x 790 km, 98.5° (Epoch: 23 June)

Event Time Altitude Azimuth Distance (km) Brightness Sun altitude
Exits shadow 20:03:05 - 136° (SE) 2,393 5.4 -7.5°
Reaches altitude 10° 20:03:16 10° 135° (SE) 2,326 5.3 -7.6°
Maximum altitude 20:08:03 42° 66° (ENE) 1,105 4.2 -8.1°
Drops below altitude 10° 20:12:52 10° 357° (N) 2,337 6.8 -8.7°
Sets 20:15:17 0° 351° (N) 3,269 7.8 -8.9°
